Content
SEND FEEDBACK

Daily
Averages
Monthly
Summary
United States of America

UMATAC, GUAM


Home > North America > United States > Guam
Elevation: 190 feet     Latitude: 13 17N     Longitude: 144 40E

WEATHER
 
SELECT A DAY
Number of Records: 342,219;   Date Range: 1/1/95 - 8/28/14
 
SHARE

PRINT THIS DATA

[ ← Previous Day ]
WEATHER ALMANAC - FEBRUARY 3, 2014
[ Next Day → ]
[ °C ]   °F
Weather ElementAverageHighLow
Temperature78.2 °F82.8 °F (11:58 am)73.4 °F (5:18 am)
Dewpoint74.3 °F77 °F (3:03 am) (7:00 pm)
Humidity90.3 %100 % (3:03 am)79 % (12:13 pm)
Barometer29.81 in29.84 in (12:13 am)29.75 in (2:58 pm)
Wind Speed13.1 mph17.3 mph (3:39 am)
Wind Gust23 mph (3:39 am)
Weather ElementAverage
Visibility9.6 mi
Wind DirectionENE (56.3 °)

Weather ElementTotal
Precipitation0.19 in
Cooling Degree Days13.1 (Base 65)
Growing Degree Days28.1 (Base 50)
Averaged from 98 records on February 3, 2014
WEATHER CONDITIONS BREAKOUT
WIND DIRECTION BREAKOUT
WEATHER BY HOUR - FEBRUARY 3, 2014
[ °C ]   °F
Local TimeTemperatureDewpointHumidityBarometerVisibilityWind DirectionWind SpeedGust SpeedPrecipitationEventsConditions
12:13 AM78.8 °F73.4 °F83 %29.84 in10.0 miNE (50°)13.8 mphMostly Cloudy
12:18 AM77.0 °F73.4 °F89 %29.84 in10.0 miENE (60°)16.1 mphScattered Clouds
12:33 AM77.0 °F75.2 °F94 %29.83 in10.0 miENE (60°)12.7 mphMostly Cloudy
12:43 AM77.0 °F75.2 °F94 %29.83 in10.0 miENE (60°)13.8 mphMostly Cloudy
12:58 AM77.5 °F74.5 °F90 %29.81 in10.0 miENE (60°)11.5 mphScattered Clouds
1:02 AM77.0 °F75.2 °F94 %29.83 in10.0 miNE (50°)12.7 mphRainLight Rain
1:07 AM77.0 °F75.2 °F94 %29.83 in10.0 miENE (60°)12.7 mphRainLight Rain
1:11 AM77.0 °F75.2 °F94 %29.83 in10.0 miENE (60°)13.8 mphScattered Clouds
1:58 AM77.4 °F74.5 °F91 %29.78 in10.0 miENE (60°)16.1 mph0.00 inScattered Clouds
2:48 AM77.0 °F75.2 °F94 %29.80 in10.0 miENE (60°)16.1 mphMostly Cloudy
2:53 AM77.0 °F75.2 °F94 %29.80 in10.0 miENE (60°)12.7 mphMostly Cloudy
2:58 AM77.0 °F75.2 °F94 %29.77 in10.0 miENE (70°)13.8 mph19.6 mphScattered Clouds
3:03 AM77.0 °F77.0 °F100 %29.80 in10.0 miENE (70°)10.4 mph19.6 mphMostly Cloudy
3:13 AM77.0 °F75.2 °F94 %29.80 in10.0 miENE (60°)10.4 mphMostly Cloudy
3:18 AM77.0 °F75.2 °F94 %29.80 in10.0 miNE (50°)16.1 mph20.7 mphMostly Cloudy
3:23 AM77.0 °F75.2 °F94 %29.80 in10.0 miNE (50°)16.1 mph20.7 mphRainLight Rain
3:28 AM77.0 °F75.2 °F94 %29.80 in10.0 miENE (60°)13.8 mphRainLight Rain
3:34 AM77.0 °F75.2 °F94 %29.80 in10.0 miENE (60°)16.1 mph21.9 mphScattered Clouds
3:39 AM77.0 °F75.2 °F94 %29.80 in10.0 miENE (60°)17.3 mph23.0 mphMostly Cloudy
3:44 AM77.0 °F75.2 °F94 %29.79 in10.0 miENE (60°)16.1 mphScattered Clouds
3:58 AM76.5 °F76.1 °F99 %29.76 in10.0 miENE (70°)13.8 mph0.00 inScattered Clouds
4:03 AM77.0 °F77.0 °F100 %29.79 in10.0 miENE (60°)16.1 mphMostly Cloudy
4:08 AM75.2 °F75.2 °F100 %29.79 in10.0 miENE (60°)13.8 mphScattered Clouds
4:58 AM75.9 °F75.2 °F98 %29.77 in10.0 miNE (50°)13.8 mphScattered Clouds
5:08 AM75.2 °F75.2 °F100 %29.80 in10.0 miENE (70°)15.0 mph23.0 mphRainLight Rain
5:18 AM73.4 °F73.4 °F100 %29.81 in9.0 miENE (60°)11.5 mph23.0 mphMostly Cloudy
5:22 AM73.4 °F73.4 °F100 %29.81 in8.0 miENE (70°)13.8 mphLight Drizzle
5:30 AM73.4 °F71.6 °F94 %29.81 in6.0 miENE (60°)12.7 mphLight Drizzle
5:45 AM75.2 °F71.6 °F89 %29.81 in8.0 miNNE (30°)10.4 mphRainHeavy Rain
5:55 AM75.2 °F71.6 °F89 %29.81 in5.0 miNorth (10°)11.5 mphRainHeavy Rain
5:58 AM73.4 °F71.6 °F94 %29.78 in6.0 miNNE (20°)11.5 mph0.06 inRainHeavy Rain
6:26 AM73.4 °F0.0 °F29.82 in10.0 miNorth (10°)4.6 mphOvercast
6:36 AM75.2 °F71.6 °F89 %29.82 in10.0 miENE (60°)8.1 mphMostly Cloudy
6:41 AM75.2 °F71.6 °F89 %29.82 in10.0 miENE (60°)11.5 mph17.3 mphMostly Cloudy
6:51 AM75.2 °F71.6 °F89 %29.83 in10.0 miENE (60°)12.7 mphMostly Cloudy
6:58 AM75.7 °F73.4 °F92 %29.81 in10.0 miENE (60°)12.7 mph0.02 inMostly Cloudy
7:58 AM78.1 °F74.8 °F90 %29.81 in10.0 miENE (70°)12.7 mphPartly Cloudy
8:58 AM78.8 °F73.9 °F85 %29.81 in10.0 miEast (80°)13.8 mphPartly Cloudy
9:58 AM81.3 °F75.6 °F83 %29.81 in10.0 miEast (90°)15.0 mphClear
10:58 AM82.2 °F75.4 °F80 %29.82 in10.0 miEast (80°)11.5 mphClear
11:58 AM82.8 °F75.9 °F80 %29.81 in10.0 miEast (80°)15.0 mphScattered Clouds
12:13 PM82.4 °F75.2 °F79 %29.84 in10.0 miENE (60°)15.0 mphMostly Cloudy
12:23 PM82.4 °F75.2 °F79 %29.84 in10.0 miENE (60°)15.0 mphMostly Cloudy
12:33 PM82.4 °F75.2 °F79 %29.84 in10.0 miENE (60°)16.1 mphMostly Cloudy
12:38 PM82.4 °F75.2 °F79 %29.83 in10.0 miENE (70°)15.0 mphScattered Clouds
12:58 PM82.0 °F75.9 °F82 %29.81 in10.0 miENE (70°)12.7 mphMostly Cloudy
1:03 PM82.4 °F75.2 °F79 %29.82 in10.0 miENE (70°)11.5 mphScattered Clouds
1:58 PM82.0 °F74.8 °F79 %29.77 in10.0 miNE (40°)13.8 mphPartly Cloudy
2:58 PM81.3 °F74.5 °F80 %29.75 in10.0 miNE (50°)12.7 mphScattered Clouds
3:58 PM81.3 °F74.8 °F81 %29.75 in10.0 miENE (60°)8.1 mphPartly Cloudy
4:13 PM80.6 °F75.2 °F84 %29.78 in10.0 miNE (40°)11.5 mphMostly Cloudy
4:28 PM80.6 °F75.2 °F84 %29.79 in10.0 miNE (40°)12.7 mphMostly Cloudy
4:58 PM81.1 °F74.7 °F81 %29.76 in10.0 miNE (40°)13.8 mphMostly Cloudy
5:33 PM80.6 °F75.2 °F84 %29.80 in10.0 miNE (40°)11.5 mphMostly Cloudy
5:35 PM80.6 °F75.2 °F84 %29.80 in10.0 miNE (50°)12.7 mphLight Drizzle
5:40 PM78.8 °F75.2 °F89 %29.80 in10.0 miNE (50°)9.2 mphLight Drizzle
5:45 PM78.8 °F75.2 °F89 %29.79 in10.0 miNE (50°)11.5 mphMostly Cloudy
5:58 PM79.7 °F75.0 °F86 %29.77 in10.0 miNE (50°)12.7 mph0.00 inOvercast
6:33 PM78.8 °F75.2 °F89 %29.81 in10.0 miNE (50°)12.7 mphOvercast
6:38 PM78.8 °F75.2 °F89 %29.81 in10.0 miNE (50°)12.7 mphOvercast
6:43 PM78.8 °F75.2 °F89 %29.81 in10.0 miNE (50°)12.7 mphOvercast
6:46 PM78.8 °F75.2 °F89 %29.81 in10.0 miNE (50°)12.7 mphLight Drizzle
6:51 PM78.8 °F75.2 °F89 %29.81 in10.0 miNE (50°)11.5 mphLight Drizzle
6:54 PM78.8 °F75.2 °F89 %29.81 in10.0 miNE (50°)12.7 mphMostly Cloudy
6:58 PM78.6 °F75.6 °F90 %29.78 in10.0 miNE (50°)11.5 mph0.00 inMostly Cloudy
7:08 PM78.8 °F75.2 °F89 %29.81 in10.0 miNE (50°)12.7 mphMostly Cloudy
7:18 PM78.8 °F75.2 °F89 %29.81 in10.0 miNE (50°)15.0 mphMostly Cloudy
7:23 PM78.8 °F75.2 °F89 %29.82 in10.0 miENE (60°)13.8 mphMostly Cloudy
7:33 PM78.8 °F75.2 °F89 %29.82 in10.0 miNE (50°)11.5 mphScattered Clouds
7:43 PM78.8 °F75.2 °F89 %29.82 in10.0 miNE (50°)13.8 mphMostly Cloudy
7:48 PM78.8 °F75.2 °F89 %29.82 in10.0 miNE (50°)13.8 mphMostly Cloudy
7:53 PM78.8 °F75.2 °F89 %29.82 in10.0 miNE (50°)15.0 mphMostly Cloudy
7:58 PM78.8 °F75.7 °F90 %29.79 in10.0 miENE (60°)13.8 mphMostly Cloudy
8:03 PM78.8 °F75.2 °F89 %29.82 in10.0 miENE (60°)12.7 mphMostly Cloudy
8:08 PM78.8 °F75.2 °F89 %29.83 in10.0 miNE (50°)12.7 mphMostly Cloudy
8:48 PM78.8 °F75.2 °F89 %29.83 in10.0 miENE (60°)12.7 mphMostly Cloudy
8:58 PM78.8 °F75.2 °F89 %29.81 in10.0 miNE (50°)12.7 mphScattered Clouds
9:03 PM78.8 °F75.2 °F89 %29.84 in10.0 miNE (50°)13.8 mphScattered Clouds
9:08 PM78.8 °F75.2 °F89 %29.84 in10.0 miENE (60°)13.8 mphMostly Cloudy
9:18 PM78.8 °F75.2 °F89 %29.84 in10.0 miENE (60°)13.8 mphMostly Cloudy
9:23 PM78.8 °F75.2 °F89 %29.84 in10.0 miENE (60°)16.1 mphMostly Cloudy
9:38 PM78.8 °F77.0 °F94 %29.84 in10.0 miENE (60°)15.0 mphMostly Cloudy
9:43 PM78.8 °F75.2 °F89 %29.84 in10.0 miENE (60°)13.8 mphMostly Cloudy
9:48 PM78.8 °F75.2 °F89 %29.84 in10.0 miENE (60°)15.0 mphMostly Cloudy
9:53 PM78.8 °F77.0 °F94 %29.84 in10.0 miENE (60°)15.0 mphMostly Cloudy
9:58 PM78.4 °F76.3 °F93 %29.81 in10.0 miENE (60°)15.0 mphMostly Cloudy
10:08 PM78.8 °F77.0 °F94 %29.84 in10.0 miENE (60°)13.8 mphScattered Clouds
10:48 PM78.8 °F77.0 °F94 %29.84 in10.0 miENE (60°)15.0 mphMostly Cloudy
10:58 PM78.4 °F76.6 °F94 %29.81 in10.0 miNE (50°)15.0 mphMostly Cloudy
11:08 PM78.8 °F77.0 °F94 %29.84 in10.0 miENE (60°)10.4 mphMostly Cloudy
11:09 PM78.8 °F77.0 °F94 %29.84 in10.0 miENE (70°)8.1 mphRainLight Rain
11:14 PM78.8 °F77.0 °F94 %29.84 in6.0 miENE (60°)9.2 mphRainLight Rain
11:19 PM77.0 °F77.0 °F100 %29.84 in2.5 miENE (60°)11.5 mphRainHeavy Rain
11:24 PM77.0 °F77.0 °F100 %29.84 in2.5 miENE (60°)12.7 mph19.6 mphRainRain
11:29 PM77.0 °F77.0 °F100 %29.84 in5.0 miENE (60°)12.7 mph19.6 mphRainLight Rain
11:32 PM77.0 °F77.0 °F100 %29.84 in10.0 miENE (60°)12.7 mphMostly Cloudy
11:52 PM77.0 °F75.2 °F94 %29.84 in10.0 miENE (60°)12.7 mphScattered Clouds
11:58 PM77.0 °F75.2 °F94 %29.81 in10.0 miNE (50°)12.7 mph0.11 inMostly Cloudy
Hourly data recorded from PGUA, located miles away from Umatac, Guam







STORIES FROM OUR PARTNERS